Weather History for Smithfield, NC

Change the Weather History Date:

Sunday, July 14, 2013

  Actual Average Record
Temperature  
Mean Temperature 78 °F -  
Max Temperature 87 °F 91 °F 101 °F (1954)
Min Temperature 69 °F 66 °F 53 °F (1976)
Cooling Degree Days 13    
Growing Degree Days 28 (Base 50)    
Moisture  
Dew Point 72 °F    
Average Humidity 84    
Maximum Humidity 100    
Minimum Humidity 55    
Precipitation  
Precipitation 0.01 in - - ()
Sea Level Pressure  
Sea Level Pressure 30.26 in    
Wind  
Wind Speed 2 mph (East)    
Max Wind Speed 7 mph    
Max Gust Speed -    
Visibility 10 miles    
Events      
Averages and records for this station are not official NWS values.
T = Trace of Precipitation, MM = Missing Value Source: NWS Daily Summary

Daily Weather History Graph

Daily Weather History Graph

Search for Another Location

Airport:

Trip Planner

Search our weather history database for the weather conditions in past years. The results will help you decide how hot, cold, wet, or windy it might be!

Date:

Astronomy

Jul. 14, 2013 Rise Set
Actual Time 6:09 AM EDT 8:29 PM EDT
Civil Twilight 5:39 AM EDT 8:58 PM EDT
Nautical Twilight 5:03 AM EDT 9:34 PM EDT
Astronomical Twilight 4:24 AM EDT 10:13 PM EDT
Moon 12:09 PM EDT (7/14) 11:56 PM EDT (7/14)
Length of Visible Light 15h 19m
Length of Day
14h 20m
Waxing Crescent, 35% of the Moon is Illuminated
Jul 14
Waxing Crescent
Jul 15
First Quarter
Jul 22
Full
Jul 29
Last Quarter
Aug 6
New

Hourly Weather History & Observations

Time (EDT) Temp. Heat Index Dew Point Humidity Pressure Visibility Wind Dir Wind Speed Gust Speed Precip Events Conditions
12:15 AM 71.6 °F - 71.6 °F 100% 30.20 in 10.0 mi Calm Calm - N/A   Clear
12:35 AM 71.6 °F - 71.6 °F 100% 30.20 in 10.0 mi ENE 4.6 mph - N/A   Clear
12:55 AM 71.6 °F - 71.6 °F 100% 30.20 in 10.0 mi Calm Calm - N/A   Clear
1:15 AM 71.6 °F - 71.6 °F 100% 30.20 in 10.0 mi Calm Calm - N/A   Clear
1:35 AM 71.6 °F - 71.6 °F 100% 30.20 in 10.0 mi Calm Calm - N/A   Scattered Clouds
1:55 AM 71.6 °F - 71.6 °F 100% 30.20 in 10.0 mi Calm Calm - N/A   Scattered Clouds
2:15 AM 71.6 °F - 71.6 °F 100% 30.21 in 10.0 mi Calm Calm - N/A   Clear
2:35 AM 71.6 °F - 71.6 °F 100% 30.21 in 10.0 mi Calm Calm - N/A   Clear
2:55 AM 71.6 °F - 71.6 °F 100% 30.21 in 10.0 mi Calm Calm - N/A   Scattered Clouds
3:15 AM 71.6 °F - 71.6 °F 100% 30.21 in 10.0 mi Calm Calm - N/A   Scattered Clouds
3:35 AM 71.6 °F - 71.6 °F 100% 30.21 in 10.0 mi Calm Calm - N/A   Clear
3:55 AM 71.6 °F - 71.6 °F 100% 30.21 in 10.0 mi Calm Calm - N/A   Clear
4:15 AM 69.8 °F - 69.8 °F 100% 30.22 in 10.0 mi Calm Calm - N/A   Clear
4:35 AM 69.8 °F - 69.8 °F 100% 30.22 in 10.0 mi Calm Calm - N/A   Clear
4:55 AM 69.8 °F - 69.8 °F 100% 30.22 in 10.0 mi Calm Calm - N/A   Clear
5:15 AM 69.8 °F - 69.8 °F 100% 30.23 in 10.0 mi Calm Calm - N/A   Clear
5:35 AM 69.8 °F - 69.8 °F 100% 30.24 in 10.0 mi Calm Calm - N/A   Scattered Clouds
5:55 AM 69.8 °F - 69.8 °F 100% 30.25 in 10.0 mi Calm Calm - N/A   Scattered Clouds
6:15 AM 69.8 °F - 69.8 °F 100% 30.25 in 7.0 mi Calm Calm - N/A   Scattered Clouds
6:35 AM 69.8 °F - 69.8 °F 100% 30.26 in 10.0 mi Calm Calm - N/A   Scattered Clouds
6:55 AM 71.6 °F - 71.6 °F 100% 30.26 in 10.0 mi Calm Calm - N/A   Mostly Cloudy
7:15 AM 71.6 °F - 71.6 °F 100% 30.27 in 10.0 mi Calm Calm - N/A   Mostly Cloudy
7:35 AM 73.4 °F - 73.4 °F 100% 30.27 in 10.0 mi NE 3.5 mph - N/A   Mostly Cloudy
7:55 AM 73.4 °F - 73.4 °F 100% 30.28 in 10.0 mi Calm Calm - N/A   Mostly Cloudy
8:15 AM 77.0 °F - 73.4 °F 89% 30.28 in 10.0 mi ENE 4.6 mph - N/A   Overcast
8:35 AM 77.0 °F - 75.2 °F 94% 30.28 in 10.0 mi East 3.5 mph - N/A   Overcast
8:55 AM 78.8 °F - 73.4 °F 83% 30.28 in 10.0 mi East 4.6 mph - N/A   Mostly Cloudy
9:15 AM 78.8 °F - 73.4 °F 83% 30.29 in 10.0 mi East 4.6 mph - N/A   Mostly Cloudy
9:35 AM 80.6 °F 85.4 °F 73.4 °F 79% 30.29 in 10.0 mi East 3.5 mph - N/A   Overcast
9:55 AM 80.6 °F 84.6 °F 71.6 °F 74% 30.29 in 10.0 mi ENE 5.8 mph - N/A   Overcast
10:15 AM 80.6 °F 84.6 °F 71.6 °F 74% 30.29 in 10.0 mi ESE 4.6 mph - N/A   Mostly Cloudy
10:35 AM 82.4 °F 87.2 °F 71.6 °F 70% 30.29 in 10.0 mi SSE 5.8 mph - N/A   Mostly Cloudy
10:55 AM 82.4 °F 86.3 °F 69.8 °F 66% 30.29 in 10.0 mi SE 4.6 mph - N/A   Mostly Cloudy
11:15 AM 82.4 °F 86.3 °F 69.8 °F 66% 30.30 in 10.0 mi SE 5.8 mph - N/A   Mostly Cloudy
11:35 AM 84.2 °F 88.4 °F 69.8 °F 62% 30.29 in 10.0 mi ESE 5.8 mph - N/A   Mostly Cloudy
11:55 AM 82.4 °F 86.3 °F 69.8 °F 66% 30.29 in 10.0 mi Calm Calm - N/A   Scattered Clouds
12:15 PM 82.4 °F 87.2 °F 71.6 °F 70% 30.29 in 10.0 mi Calm Calm - N/A   Mostly Cloudy
12:35 PM 82.4 °F 87.2 °F 71.6 °F 70% 30.29 in 10.0 mi NE 3.5 mph - N/A   Scattered Clouds
12:55 PM 86.0 °F 91.8 °F 71.6 °F 62% 30.28 in 10.0 mi NE 6.9 mph - N/A   Scattered Clouds
1:15 PM 86.0 °F 91.8 °F 71.6 °F 62% 30.28 in 10.0 mi East 3.5 mph - N/A   Mostly Cloudy
1:35 PM 87.8 °F 92.6 °F 69.8 °F 55% 30.27 in 10.0 mi ESE 6.9 mph - N/A   Mostly Cloudy
1:55 PM 87.8 °F 92.6 °F 69.8 °F 55% 30.27 in 10.0 mi East 3.5 mph - N/A   Scattered Clouds
2:15 PM 86.0 °F 90.4 °F 69.8 °F 58% 30.27 in 10.0 mi ESE 5.8 mph - N/A   Scattered Clouds
2:35 PM 87.8 °F 92.6 °F 69.8 °F 55% 30.26 in 10.0 mi East 3.5 mph - N/A   Scattered Clouds
2:55 PM 86.0 °F 91.8 °F 71.6 °F 62% 30.26 in 10.0 mi ENE 4.6 mph - N/A   Scattered Clouds
3:15 PM 86.0 °F 90.4 °F 69.8 °F 58% 30.26 in 10.0 mi East 4.6 mph - N/A   Mostly Cloudy
3:35 PM 87.8 °F 92.6 °F 69.8 °F 55% 30.25 in 10.0 mi Calm Calm - N/A   Mostly Cloudy
3:55 PM 86.0 °F 90.4 °F 69.8 °F 58% 30.25 in 10.0 mi Calm Calm - N/A   Mostly Cloudy
4:15 PM 87.8 °F 92.6 °F 69.8 °F 55% 30.24 in 10.0 mi ESE 4.6 mph - N/A   Scattered Clouds
4:35 PM 87.8 °F 92.6 °F 69.8 °F 55% 30.23 in 10.0 mi East 5.8 mph - N/A   Scattered Clouds
4:55 PM 87.8 °F 92.6 °F 69.8 °F 55% 30.23 in 10.0 mi ENE 4.6 mph - N/A   Scattered Clouds
5:15 PM 87.8 °F 92.6 °F 69.8 °F 55% 30.23 in 10.0 mi ENE 4.6 mph - N/A   Scattered Clouds
5:35 PM 78.8 °F - 71.6 °F 78% 30.24 in 10.0 mi Calm Calm - N/A   Overcast
5:55 PM 82.4 °F 87.2 °F 71.6 °F 70% 30.24 in 10.0 mi Calm Calm - N/A   Mostly Cloudy
6:15 PM 82.4 °F 87.2 °F 71.6 °F 70% 30.24 in 10.0 mi Calm Calm - N/A   Unknown
6:35 PM 80.6 °F 84.6 °F 71.6 °F 74% 30.25 in 10.0 mi NE 3.5 mph - N/A   Scattered Clouds
6:55 PM 80.6 °F 84.6 °F 71.6 °F 74% 30.25 in 10.0 mi Calm Calm - N/A   Scattered Clouds
7:15 PM 80.6 °F 84.6 °F 71.6 °F 74% 30.25 in 10.0 mi NE 3.5 mph - N/A   Scattered Clouds
7:35 PM 80.6 °F 84.6 °F 71.6 °F 74% 30.26 in 10.0 mi ESE 5.8 mph - N/A   Mostly Cloudy
7:55 PM 77.0 °F - 73.4 °F 89% 30.25 in 10.0 mi Calm Calm - 0.01 in   Mostly Cloudy
8:15 PM 77.0 °F - 73.4 °F 89% 30.25 in 10.0 mi Calm Calm - N/A   Scattered Clouds
8:35 PM 75.2 °F - 73.4 °F 94% 30.26 in 10.0 mi Calm Calm - N/A   Scattered Clouds
8:55 PM 77.0 °F - 73.4 °F 89% 30.26 in 10.0 mi Calm Calm - N/A   Scattered Clouds
9:15 PM 75.2 °F - 73.4 °F 94% 30.27 in 10.0 mi Calm Calm - N/A   Scattered Clouds
9:35 PM 73.4 °F - 73.4 °F 100% 30.28 in 10.0 mi Calm Calm - N/A   Clear
9:55 PM 73.4 °F - 73.4 °F 100% 30.28 in 10.0 mi Calm Calm - N/A   Clear
10:15 PM 73.4 °F - 73.4 °F 100% 30.29 in 10.0 mi Calm Calm - N/A   Clear
10:35 PM 73.4 °F - 73.4 °F 100% 30.29 in 10.0 mi Calm Calm - N/A   Clear
10:55 PM 73.4 °F - 73.4 °F 100% 30.30 in 10.0 mi Calm Calm - N/A   Clear
11:15 PM 73.4 °F - 73.4 °F 100% 30.30 in 10.0 mi Calm Calm - N/A   Clear
11:35 PM 73.4 °F - 73.4 °F 100% 30.30 in 10.0 mi Calm Calm - N/A   Clear
11:55 PM 73.4 °F - 73.4 °F 100% 30.30 in 10.0 mi Calm Calm - N/A   Clear